EN

Hourly Weather Abdulkasimovo

Today, 14 June, Monday

Time Temperature Precipitation Wind Pressure Humidity
00:00 +15°C° 0 mm 0 mps 718 mmHg 59%
01:00 +15°C° 0 mm 0 mps 718 mmHg 58%
02:00 +15°C° 0 mm 0 mps 718 mmHg 59%
03:00 +15°C° 0 mm 0 mps 718 mmHg 60%
04:00 +14°C° 0 mm 0 mps 718 mmHg 60%
05:00 +16°C° 0 mm 0 mps 718 mmHg 59%
06:00 +19°C° 0 mm 1 mps 719 mmHg 57%
07:00 +20°C° 0 mm 1 mps 719 mmHg 56%
08:00 +20°C° 0 mm 2 mps 719 mmHg 49%
09:00 +22°C° 0 mm 3 mps 719 mmHg 41%
10:00 +25°C° 0 mm 4 mps 719 mmHg 36%
11:00 +26°C° 0 mm 4 mps 719 mmHg 35%
12:00 +26°C° 0 mm 4 mps 719 mmHg 34%
13:00 +27°C° 0 mm 4 mps 719 mmHg 33%
14:00 +27°C° 0 mm 3 mps 719 mmHg 34%
15:00 +27°C° 0 mm 3 mps 719 mmHg 36%
16:00 +27°C° 0 mm 3 mps 719 mmHg 38%
17:00 +25°C° 0 mm 2 mps 718 mmHg 44%
18:00 +24°C° 0 mm 2 mps 718 mmHg 51%
19:00 +23°C° 0 mm 1 mps 718 mmHg 57%
20:00 +22°C° 0 mm 1 mps 717 mmHg 56%
21:00 +21°C° 0 mm 1 mps 717 mmHg 54%
22:00 +20°C° 0 mm 1 mps 717 mmHg 52%
23:00 +19°C° 0 mm 1 mps 717 mmHg 55%

Tomorrow, 15 June, Tuesday

Time Temperature Precipitation Wind Pressure Humidity
00:00 +18°C° 0 mm 1 mps 717 mmHg 58%
01:00 +16°C° 0 mm 1 mps 716 mmHg 61%
02:00 +15°C° 0 mm 1 mps 716 mmHg 61%
03:00 +15°C° 0 mm 1 mps 716 mmHg 61%
04:00 +15°C° 0 mm 1 mps 716 mmHg 61%
05:00 +17°C° 0 mm 2 mps 716 mmHg 60%
06:00 +18°C° 0 mm 2 mps 716 mmHg 58%
07:00 +20°C° 0 mm 2 mps 716 mmHg 57%
08:00 +22°C° 0 mm 3 mps 716 mmHg 49%
09:00 +25°C° 0 mm 4 mps 716 mmHg 42%
10:00 +27°C° 0 mm 5 mps 716 mmHg 34%
11:00 +28°C° 0 mm 5 mps 716 mmHg 32%
12:00 +29°C° 0 mm 5 mps 716 mmHg 30%
13:00 +29°C° 0 mm 5 mps 716 mmHg 28%
14:00 +29°C° 0 mm 5 mps 716 mmHg 31%
15:00 +29°C° 0 mm 4 mps 715 mmHg 34%
16:00 +28°C° 0 mm 4 mps 715 mmHg 38%
17:00 +27°C° 0 mm 3 mps 715 mmHg 46%
18:00 +25°C° 0 mm 2 mps 715 mmHg 53%
19:00 +24°C° 0 mm 1 mps 715 mmHg 61%
20:00 +22°C° 0 mm 1 mps 715 mmHg 65%
21:00 +21°C° 0 mm 1 mps 714 mmHg 69%
22:00 +19°C° 0 mm 1 mps 714 mmHg 73%
23:00 +18°C° 0 mm 1 mps 714 mmHg 75%

Day after tomorrow, 16 June, Wednesday

Time Temperature Precipitation Wind Pressure Humidity
00:00 +18°C° 0 mm 1 mps 714 mmHg 76%
01:00 +16°C° 0 mm 1 mps 714 mmHg 77%
02:00 +16°C° 0 mm 1 mps 714 mmHg 76%
03:00 +16°C° 0 mm 1 mps 714 mmHg 75%
04:00 +16°C° 0 mm 1 mps 714 mmHg 73%
05:00 +19°C° 0 mm 1 mps 714 mmHg 67%
06:00 +19°C° 0 mm 0 mps 715 mmHg 61%
07:00 +21°C° 0 mm 0 mps 715 mmHg 54%
08:00 +25°C° 0 mm 1 mps 715 mmHg 50%
09:00 +27°C° 0 mm 2 mps 715 mmHg 45%
10:00 +28°C° 0 mm 2 mps 715 mmHg 40%
11:00 +28°C° 0 mm 2 mps 714 mmHg 41%
12:00 +28°C° 0 mm 2 mps 714 mmHg 42%
13:00 +28°C° 0 mm 2 mps 714 mmHg 44%
14:00 +27°C° 0.1 mm 2 mps 714 mmHg 46%
15:00 +26°C° 0.1 mm 2 mps 713 mmHg 49%
16:00 +25°C° 0.1 mm 2 mps 713 mmHg 52%
17:00 +24°C° 0.2 mm 2 mps 713 mmHg 59%
18:00 +21°C° 0.2 mm 2 mps 713 mmHg 67%
19:00 +20°C° 0.2 mm 2 mps 713 mmHg 75%
20:00 +19°C° 0 mm 2 mps 713 mmHg 78%
21:00 +18°C° 0 mm 2 mps 713 mmHg 81%
22:00 +17°C° 0 mm 2 mps 712 mmHg 83%
23:00 +17°C° 0 mm 2 mps 712 mmHg 83%

17 June, Thursday

Time Temperature Precipitation Wind Pressure Humidity
00:00 +17°C° 0 mm 2 mps 711 mmHg 83%
01:00 +16°C° 0 mm 2 mps 711 mmHg 83%
02:00 +16°C° 0 mm 2 mps 710 mmHg 83%
03:00 +16°C° 0 mm 1 mps 710 mmHg 82%
04:00 +15°C° 0 mm 1 mps 710 mmHg 82%
05:00 +17°C° 0 mm 2 mps 710 mmHg 77%
06:00 +18°C° 0 mm 2 mps 709 mmHg 73%
07:00 +20°C° 0 mm 2 mps 709 mmHg 68%
08:00 +22°C° 0 mm 3 mps 709 mmHg 59%
09:00 +25°C° 0 mm 4 mps 709 mmHg 51%
10:00 +27°C° 0 mm 4 mps 708 mmHg 43%
11:00 +28°C° 0 mm 4 mps 708 mmHg 41%
12:00 +29°C° 0 mm 4 mps 708 mmHg 40%
13:00 +29°C° 0 mm 4 mps 708 mmHg 38%
14:00 +28°C° 0 mm 4 mps 708 mmHg 44%
15:00 +26°C° 0 mm 4 mps 707 mmHg 51%
16:00 +25°C° 0 mm 5 mps 707 mmHg 57%
17:00 +22°C° 0.5 mm 5 mps 707 mmHg 67%
18:00 +21°C° 0.5 mm 4 mps 708 mmHg 76%
19:00 +19°C° 0.5 mm 4 mps 708 mmHg 86%
20:00 +17°C° 0.1 mm 4 mps 708 mmHg 86%
21:00 +15°C° 0.1 mm 4 mps 708 mmHg 86%
22:00 +14°C° 0.1 mm 4 mps 709 mmHg 86%
23:00 +13°C° 0 mm 4 mps 709 mmHg 85%

18 June, Friday

Time Temperature Precipitation Wind Pressure Humidity
00:00 +12°C° 0 mm 4 mps 709 mmHg 85%
01:00 +10°C° 0 mm 4 mps 709 mmHg 84%
02:00 +9°C° 0 mm 3 mps 710 mmHg 85%
03:00 +8°C° 0 mm 3 mps 710 mmHg 87%
04:00 +7°C° 0 mm 2 mps 710 mmHg 88%
05:00 +8°C° 0 mm 3 mps 711 mmHg 82%
06:00 +10°C° 0 mm 3 mps 711 mmHg 76%
07:00 +11°C° 0 mm 4 mps 711 mmHg 69%
08:00 +12°C° 0 mm 5 mps 712 mmHg 61%
09:00 +13°C° 0 mm 5 mps 712 mmHg 52%
10:00 +14°C° 0 mm 5 mps 712 mmHg 44%
11:00 +15°C° 0 mm 6 mps 712 mmHg 40%
12:00 +16°C° 0 mm 6 mps 713 mmHg 37%
13:00 +17°C° 0 mm 6 mps 713 mmHg 33%
14:00 +17°C° 0 mm 6 mps 713 mmHg 33%
15:00 +17°C° 0 mm 6 mps 713 mmHg 33%
16:00 +17°C° 0 mm 6 mps 714 mmHg 33%
17:00 +16°C° 0 mm 6 mps 714 mmHg 39%
18:00 +15°C° 0 mm 6 mps 714 mmHg 45%
19:00 +14°C° 0 mm 6 mps 714 mmHg 51%
20:00 +12°C° 0 mm 4 mps 715 mmHg 56%
21:00 +11°C° 0 mm 3 mps 715 mmHg 62%
22:00 +9°C° 0 mm 2 mps 715 mmHg 67%
23:00 +9°C° 0 mm 2 mps 716 mmHg 72%

19 June, Saturday

Time Temperature Precipitation Wind Pressure Humidity
00:00 +8°C° 0 mm 2 mps 716 mmHg 78%
01:00 +7°C° 0 mm 2 mps 716 mmHg 83%
02:00 +7°C° 0 mm 2 mps 716 mmHg 85%
03:00 +6°C° 0 mm 2 mps 716 mmHg 87%
04:00 +6°C° 0 mm 2 mps 716 mmHg 89%
05:00 +8°C° 0 mm 3 mps 717 mmHg 79%
06:00 +10°C° 0 mm 4 mps 717 mmHg 70%
07:00 +12°C° 0 mm 4 mps 718 mmHg 60%
08:00 +13°C° 0 mm 5 mps 718 mmHg 54%
09:00 +14°C° 0 mm 5 mps 718 mmHg 48%
10:00 +15°C° 0 mm 6 mps 718 mmHg 41%
11:00 +14°C° 0 mm 5 mps 717 mmHg 48%
12:00 +14°C° 0 mm 4 mps 717 mmHg 54%
13:00 +13°C° 0 mm 4 mps 717 mmHg 61%
14:00 +14°C° 0 mm 4 mps 717 mmHg 59%
15:00 +15°C° 0 mm 4 mps 716 mmHg 57%
16:00 +18°C° 0 mm 4 mps 716 mmHg 56%
17:00 +16°C° 0 mm 5 mps 716 mmHg 59%
18:00 +16°C° 0 mm 5 mps 715 mmHg 63%
19:00 +16°C° 0 mm 6 mps 715 mmHg 66%
20:00 +16°C° 0 mm 5 mps 715 mmHg 69%
21:00 +15°C° 0 mm 5 mps 715 mmHg 71%
22:00 +15°C° 0 mm 5 mps 714 mmHg 73%
23:00 +14°C° 0.1 mm 4 mps 714 mmHg 78%
Show more